Fort Myers, FL

5:29 PM EDT on May 25, 2017 (GMT -0400)
Page

Weather History for KFMY - December, 2010

Change the Weather History Date:

Monday, December 6, 2010

  Actual Average Record
Temperature  
Mean Temperature 52 °F 68 °F  
Max Temperature 59 °F 78 °F 87 °F (1978)
Min Temperature 44 °F 58 °F 41 °F (1987)
Degree Days  
Heating Degree Days 13 2  
Month to date heating degree days 38 7  
Since 1 July heating degree days 50 25  
Cooling Degree Days 0 5  
Month to date cooling degree days 0 30  
Year to date cooling degree days 3844 3893  
Growing Degree Days 2 (Base 50)    
Moisture  
Dew Point 36 °F    
Average Humidity 59    
Maximum Humidity 77    
Minimum Humidity 33    
Precipitation  
Precipitation 0.00 in 0.04 in 1.45 in (1979)
Month to date precipitation 0.03 0.27  
Year to date precipitation 51.77 54.49  
Sea Level Pressure  
Sea Level Pressure 30.12 in    
Wind  
Wind Speed 11 mph (NNW)    
Max Wind Speed 21 mph    
Max Gust Speed 26 mph    
Visibility 10 miles    
Events      
T = Trace of Precipitation, MM = Missing Value Source: NWS Daily Summary

Daily Weather History Graph

Daily Weather History Graph

Search for Another Location

Airport or City:

Trip Planner

Search our weather history database for the weather conditions in past years. The results will help you decide how hot, cold, wet, or windy it might be!

Date:

Astronomy

Dec. 06, 2010 Rise Set
Actual Time 7:02 AM EST 5:34 PM EST
Civil Twilight 6:37 AM EST 5:59 PM EST
Nautical Twilight 6:08 AM EST 6:28 PM EST
Astronomical Twilight 5:40 AM EST 6:56 PM EST
Moon 7:53 AM EST (12/6) 6:34 PM EST (12/6)
Length of Visible Light 11h 22m
Length of Day
10h 32m
New Moon, 1% of the Moon is Illuminated
Dec 6
New Moon
Dec 13
First Quarter
Dec 21
Full
Dec 27
Last Quarter
Jan 4
New

Hourly Weather History & Observations

Time (EST) Temp. Windchill Dew Point Humidity Pressure Visibility Wind Dir Wind Speed Gust Speed Precip Events Conditions
12:53 AM 54.0 °F - 46.0 °F 75% 30.08 in 10.0 mi North 11.5 mph - N/A   Clear
1:53 AM 52.0 °F - 39.9 °F 63% 30.09 in 10.0 mi North 10.4 mph - N/A   Clear
2:53 AM 50.0 °F - 39.0 °F 66% 30.09 in 10.0 mi North 11.5 mph - N/A   Clear
3:53 AM 48.9 °F - 37.0 °F 64% 30.10 in 10.0 mi North 11.5 mph - N/A   Clear
4:53 AM 46.9 °F - 36.0 °F 66% 30.11 in 10.0 mi North 12.7 mph - N/A   Clear
5:53 AM 45.0 °F 40.6 °F 36.0 °F 71% 30.12 in 10.0 mi North 8.1 mph - N/A   Clear
6:53 AM 44.1 °F 39.5 °F 34.0 °F 68% 30.13 in 10.0 mi North 8.1 mph - N/A   Clear
7:53 AM 45.0 °F 39.3 °F 34.0 °F 65% 30.14 in 10.0 mi North 11.5 mph - N/A   Clear
8:53 AM 46.9 °F - 33.1 °F 59% 30.17 in 10.0 mi NNW 10.4 mph - N/A   Clear
9:53 AM 50.0 °F - 32.0 °F 50% 30.18 in 10.0 mi NW 9.2 mph - N/A   Clear
10:53 AM 54.0 °F - 28.9 °F 38% 30.17 in 10.0 mi NW 11.5 mph - N/A   Clear
11:53 AM 54.0 °F - 28.0 °F 37% 30.14 in 10.0 mi WNW 10.4 mph - N/A   Clear
12:53 PM 57.0 °F - 28.9 °F 34% 30.11 in 10.0 mi NW 15.0 mph - N/A   Clear
1:53 PM 59.0 °F - 33.1 °F 38% 30.09 in 10.0 mi NW 16.1 mph - N/A   Clear
2:53 PM 57.0 °F - 37.0 °F 47% 30.08 in 10.0 mi NW 16.1 mph - N/A   Clear
3:53 PM 55.9 °F - 37.0 °F 49% 30.09 in 10.0 mi NW 16.1 mph 24.2 mph N/A   Clear
4:53 PM 54.0 °F - 37.9 °F 55% 30.09 in 10.0 mi NNW 15.0 mph - N/A   Partly Cloudy
5:53 PM 51.1 °F - 39.0 °F 63% 30.09 in 10.0 mi NNW 11.5 mph - N/A   Clear
6:53 PM 50.0 °F - 39.0 °F 66% 30.10 in 10.0 mi NNW 8.1 mph - N/A   Clear
7:53 PM 50.0 °F - 37.9 °F 63% 30.12 in 10.0 mi North 9.2 mph - N/A   Clear
8:53 PM 48.9 °F - 37.9 °F 66% 30.12 in 10.0 mi North 8.1 mph - N/A   Clear
9:53 PM 46.9 °F - 37.0 °F 68% 30.12 in 10.0 mi North 5.8 mph - N/A   Clear
10:53 PM 46.9 °F - 37.0 °F 68% 30.12 in 10.0 mi North 5.8 mph - N/A   Clear
11:53 PM 45.0 °F 42.6 °F 37.0 °F 74% 30.12 in 10.0 mi NNE 4.6 mph - N/A   Clear